Location: Góry Miechowskie
(50.3599°N, 20.1803°E)
Time: 02:29:22
(UTC+00:00)

Orbus 7S? - Pass Details

Date: 15 June 2024
Orbit: 365 x 6246 km, 56.9° (Epoch: 03 July)

Event Time Altitude Azimuth Distance (km) Brightness Sun altitude
Rises 01:03:24 0° 297° (WNW) 2,219 6.4 -9.8°
Reaches altitude 10° 01:05:10 10° 286° (WNW) 1,436 5.3 -9.6°
Maximum altitude 01:07:50 35° 217° (SW) 804 3.6 -9.4°
Drops below altitude 10° 01:11:57 10° 151° (SSE) 2,257 6.2 -9.0°
Sets 01:15:30 0° 144° (SE) 3,829 7.4 -8.7°
